[[{"header":{"parameterUnit":"m.s-1","parameterCategory":1,"la1":30.2991,"la2":30.254,"lo1":-89.0895,"lo2":-89.0444,"dy":0.0017,"dx":0.0017,"nx":28,"ny":28,"refTime":"2025-02-04T03:00:00:Z","depth":0,"parameterNumber":2,"parameterNumberName":"U-component_of_WINDS"},"data":[0,0,0,0,0,0,0,0,0,0,0,0,0,0,0,0,0,0,0,0,0,0,0,0,0,0,0,0,0,0,0,0,0,0,0,0,0,0,0,0,0,0,0,0,0,0,0,0,0,0,0,0,0,0,0,0,0,0,-2.5201,-2.5201,0,-2.5257,-2.5258,-2.5259,-2.5225,-2.5223,-2.5222,-2.522,-2.5279,-2.5282,-2.5285,0,0,0,0,0,0,0,0,0,0,0,0,0,-2.5065,-2.5068,-2.52,-2.5201,-2.5202,-2.5257,-2.5258,-2.5259,-2.5225,-2.5223,-2.5221,-2.5219,-2.5278,-2.5282,-2.5286,0,0,0,0,0,0,0,0,0,0,0,0,0,-2.5123,-2.5068,-2.52,-2.5192,-2.5192,-2.5257,-2.5258,-2.5259,-2.5226,-2.5223,-2.5221,-2.5218,-2.5277,-2.5282,-2.5286,-2.5364,0,0,-2.53,-2.5302,0,0,0,0,0,0,0,0,-2.512,-2.5128,-2.5192,-2.5192,-2.5192,-2.5231,-2.5232,-2.5294,-2.5226,-2.5213,-2.522,-2.5217,-2.5265,-2.5271,-2.5287,-2.5366,-2.5369,-2.5301,-2.5304,-2.5306,-2.5307,0,0,0,0,0,0,0,-2.5116,-2.5125,-2.5223,-2.5193,-2.5193,-2.5186,-2.5191,-2.5243,-2.5252,-2.5214,-2.5211,-2.5218,-2.5265,-2.5283,-2.5288,-2.537,-2.5301,-2.5305,-2.5308,-2.5309,-2.5516,-2.5519,0,0,0,0,0,0,-2.5112,-2.5122,-2.5221,-2.5225,-2.5149,-2.519,-2.5196,-2.5221,-2.5251,-2.5254,-2.522,-2.5217,-2.5276,-2.5283,-2.529,-2.5383,-2.5306,-2.531,-2.5313,-2.5514,-2.5517,-2.552,0,0,0,0,0,0,-2.5109,-2.5121,-2.5219,-2.5173,-2.5185,-2.5195,-2.5223,-2.5224,-2.5241,-2.5257,-2.5258,-2.5237,-2.5274,-2.5283,-2.5346,-2.5384,-2.5312,-2.5316,-2.5511,-2.5515,-2.5519,-2.5569,0,0,0,0,0,0,-2.5106,-2.512,-2.5149,-2.5174,-2.5187,-2.5273,-2.5226,-2.5227,-2.5249,-2.5245,-2.5272,-2.5274,-2.5273,-2.5339,-2.535,-2.5389,-2.532,-2.5507,-2.5512,-2.5517,-2.5563,-2.5574,-2.5583,0,0,0,0,0,-2.5101,-2.5161,-2.5151,-2.5163,-2.5224,-2.5275,-2.5283,-2.528,-2.5252,-2.5282,-2.5292,-2.5273,-2.5379,-2.5346,-2.5358,-2.5399,-2.5505,-2.5511,-2.5517,-2.5559,-2.5572,-2.5582,0,0,0,0,0,0,-2.5141,-2.5164,-2.5153,-2.5223,-2.5248,-2.5269,-2.5306,-2.5293,-2.5326,-2.5321,-2.5316,-2.5322,-2.5387,-2.54,-2.5362,-2.5476,-2.5437,-2.5446,-2.5465,-2.5477,-2.5487,-2.5482,-2.5324,0,0,0,0,0,-2.5158,-2.5198,-2.5216,-2.5276,-2.5289,-2.5296,-2.5318,-2.5314,-2.5339,-2.5349,-2.5364,-2.5389,-2.5428,-2.5454,-2.549,-2.5566,-2.5571,-2.56,-2.561,-2.5618,-2.5625,-2.5666,-2.5679,-2.554,-2.554,-2.554,0,0,-2.5194,-2.5212,-2.5237,-2.5285,-2.5303,-2.5345,-2.5305,-2.535,-2.5381,-2.5356,-2.5415,-2.5427,-2.5456,-2.5525,-2.5556,-2.5537,-2.5665,-2.5625,-2.5632,-2.5635,-2.5674,-2.5687,-2.5699,-2.5544,-2.5543,-2.5543,0,0,-2.528,-2.5297,-2.5349,-2.5369,-2.5397,-2.5401,-2.5414,-2.5438,-2.5445,-2.5505,-2.5487,-2.5524,-2.5591,-2.5612,-2.5631,-2.5727,-2.5711,-2.5739,-2.5789,-2.5829,-2.584,-2.585,-2.5884,-2.5896,-2.5747,-2.5747,-2.5747,0,-2.532,-2.5382,-2.5378,-2.5425,-2.5447,-2.5426,-2.5479,-2.5499,-2.5538,-2.5553,-2.5532,-2.5616,-2.5633,-2.5707,-2.5731,-2.5747,-2.5762,-2.5735,-2.5839,-2.5849,-2.5858,-2.589,-2.5903,-2.575,-2.575,-2.575,-2.5749,0,-2.543,-2.5473,-2.5512,-2.555,-2.5577,-2.5627,-2.5631,-2.5658,-2.5652,-2.5659,-2.572,-2.5741,-2.5782,-2.5799,-2.5794,-2.5873,-2.586,-2.5839,-2.58,-2.5874,-2.5904,-2.5917,-2.5755,-2.5754,-2.5753,-2.5752,0,0,-2.5542,-2.5578,-2.5592,-2.5609,-2.564,-2.5673,-2.5723,-2.5762,-2.5786,-2.5814,-2.5856,-2.5913,-2.5894,-2.5916,-2.5913,-2.5949,-2.6023,-2.5923,-2.5924,-2.5941,-2.6112,-2.6127,-2.6141,-2.6014,-2.6016,-2.6018,-2.6109,0,-2.5629,-2.5714,-2.5713,-2.5793,-2.5833,-2.5815,-2.5858,-2.5882,-2.589,-2.5926,-2.5935,-2.5976,-2.5948,-2.5961,-2.5996,-2.6007,-2.6057,-2.6,-2.6052,-2.6054,-2.6044,-2.6157,-2.6173,-2.6258,-2.6121,-2.6123,-2.6125,0,-2.5741,-2.5773,-2.5857,-2.5882,-2.5899,-2.5938,-2.5974,-2.6008,-2.6036,-2.6039,-2.6065,-2.6057,-2.6108,-2.6068,-2.6139,-2.61,-2.6122,-2.6131,-2.6134,-2.6138,-2.6093,-2.6163,-2.6285,-2.6298,-2.6143,-2.6142,-2.614,0,-2.5814,-2.5878,-2.5936,-2.5951,-2.5982,-2.601,-2.6025,-2.6049,-2.6073,-2.6106,-2.6122,-2.616,-2.6181,-2.6211,-2.6213,-2.6184,-2.6285,-2.6245,-2.6289,-2.6289,-2.631,-2.6308,-2.6436,-2.6326,-2.6325,-2.6325,-2.6325,0,-2.591,-2.5962,-2.5969,-2.6004,-2.6062,-2.6061,-2.6118,-2.613,-2.6153,-2.6191,-2.6179,-2.6215,-2.6217,-2.6255,-2.6257,-2.6315,-2.6325,-2.633,-2.6329,-2.633,-2.6329,-2.6343,-2.6337,-2.6328,-2.6328,-2.6327,-2.6326,0,-2.6,-2.6006,-2.6069,-2.6093,-2.6101,-2.6143,-2.6164,-2.6199,-2.6206,-2.6255,-2.6266,-2.6279,-2.6323,-2.6329,-2.638,-2.6382,-2.6451,-2.6446,-2.6442,-2.6441,-2.6484,-2.648,-2.6624,-2.6643,-2.6521,-2.6522,-2.6523,0,-2.6061,-2.61,-2.6129,-2.6154,-2.617,-2.621,-2.6234,-2.6235,-2.6261,-2.6296,-2.6327,-2.6369,-2.6403,-2.6474,-2.6488,-2.6527,-2.6522,-2.657,-2.6528,-2.6527,-2.6522,-2.6519,-2.6523,-2.6578,-2.6579,-2.658,-2.6581,0,-2.6168,-2.6169,-2.6205,-2.6242,-2.6272,-2.6302,-2.6329,-2.6351,-2.6355,-2.6386,-2.643,-2.6456,-2.6509,-2.6551,-2.6591,-2.6606,-2.6595,-2.6594,-2.6607,-2.6607,-2.6603,-2.6605,-2.6463,-2.6591,-2.659,-2.6589,-2.6588,-2.6588,-2.6244,-2.6279,-2.6305,-2.6345,-2.6366,-2.6393,-2.6426,-2.6439,-2.6476,-2.6518,-2.6517,-2.6566,-2.6593,-2.6645,-2.6663,-2.6702,-2.6686,-2.6704,-2.6708,-2.6712,-2.6716,-2.6598,-2.6709,-2.6709,-2.6709,-2.6709,-2.6708,0,-2.635,-2.6366,-2.6404,-2.6443,-2.6475,-2.6462,-2.6492,-2.652,-2.6563,-2.659,-2.6623,-2.6675,-2.6716,-2.6734,-2.6775,-2.6803,-2.6799,-2.6814,-2.6811,-2.6815,-2.6728,-2.6713,-2.6816,-2.6816,-2.6816,-2.6816,-2.6816,-2.6816,-2.6409,-2.6466,-2.6471,-2.6539,-2.6555,-2.6603,-2.6621,-2.6646,-2.6667,-2.6725,-2.6759,-2.6771,-2.6794,-2.6837,-2.6874,-2.6879,-2.6894,-2.6911,-2.6913,-2.6832,-2.6821,-2.681,-2.6796,-2.6915,-2.6915,-2.6996,-2.6997,-2.6997]},{"header":{"parameterUnit":"m.s-1","parameterCategory":1,"la1":30.2991,"la2":30.254,"lo1":-89.0895,"lo2":-89.0444,"dy":0.0017,"dx":0.0017,"nx":28,"ny":28,"refTime":"2025-02-04T03:00:00:Z","depth":0,"parameterNumber":3,"parameterNumberName":"V-component_of_WINDS"},"data":[0,0,0,0,0,0,0,0,0,0,0,0,0,0,0,0,0,0,0,0,0,0,0,0,0,0,0,0,0,0,0,0,0,0,0,0,0,0,0,0,0,0,0,0,0,0,0,0,0,0,0,0,0,0,0,0,0,0,1.422,1.422,0,1.4259,1.4259,1.426,1.4282,1.4282,1.4282,1.4283,1.4321,1.4321,1.4322,0,0,0,0,0,0,0,0,0,0,0,0,0,1.4165,1.4165,1.422,1.422,1.4221,1.4259,1.4259,1.426,1.4282,1.4282,1.4283,1.4283,1.432,1.4321,1.4322,0,0,0,0,0,0,0,0,0,0,0,0,0,1.4194,1.4166,1.422,1.4237,1.4239,1.4259,1.4259,1.426,1.4282,1.4282,1.4283,1.4283,1.432,1.4321,1.4323,1.4329,0,0,1.4327,1.4328,0,0,0,0,0,0,0,0,1.4193,1.4196,1.4234,1.4236,1.4238,1.4266,1.4254,1.4283,1.4282,1.4266,1.4283,1.4283,1.4302,1.4305,1.4312,1.433,1.4332,1.4327,1.4328,1.4328,1.4329,0,0,0,0,0,0,0,1.4191,1.4195,1.4235,1.4234,1.4237,1.4242,1.4247,1.4259,1.4283,1.4267,1.4269,1.4273,1.4303,1.4311,1.4313,1.4333,1.4327,1.4328,1.4329,1.433,1.436,1.436,0,0,0,0,0,0,1.4186,1.4193,1.4234,1.4237,1.4215,1.4243,1.4248,1.4257,1.4283,1.4287,1.4273,1.4274,1.4308,1.4311,1.4314,1.4324,1.4328,1.433,1.4331,1.436,1.436,1.436,0,0,0,0,0,0,1.4185,1.4189,1.4233,1.4215,1.4221,1.4244,1.4254,1.4257,1.4265,1.4287,1.4291,1.4276,1.4308,1.4313,1.4325,1.4326,1.433,1.4332,1.436,1.436,1.436,1.4343,0,0,0,0,0,0,1.4183,1.4189,1.4191,1.4215,1.4222,1.4243,1.4254,1.4258,1.4267,1.4269,1.4291,1.4295,1.4309,1.4323,1.4327,1.4328,1.4333,1.436,1.436,1.436,1.4344,1.4343,1.4342,0,0,0,0,0,1.4181,1.4184,1.4191,1.4196,1.4226,1.4243,1.4247,1.4263,1.4267,1.427,1.4285,1.4294,1.4325,1.4324,1.4329,1.433,1.436,1.436,1.436,1.4344,1.4343,1.4342,0,0,0,0,0,0,1.4159,1.4188,1.4196,1.4207,1.4223,1.4247,1.4251,1.4261,1.4275,1.4276,1.4295,1.43,1.4311,1.4322,1.432,1.4338,1.4344,1.4344,1.4331,1.4329,1.4328,1.4326,1.4334,0,0,0,0,0,1.4155,1.4167,1.4192,1.4199,1.4207,1.4227,1.4235,1.4247,1.4263,1.427,1.4285,1.4301,1.4314,1.4322,1.4336,1.4346,1.4351,1.4349,1.4348,1.4347,1.4347,1.4355,1.4354,1.4359,1.4359,1.4359,0,0,1.4148,1.4165,1.4172,1.4196,1.4209,1.4221,1.4233,1.4244,1.4254,1.4271,1.4285,1.4297,1.4315,1.4327,1.4333,1.4337,1.4347,1.4347,1.4346,1.4347,1.4355,1.4354,1.4354,1.4359,1.4359,1.4359,0,0,1.4141,1.4155,1.4164,1.4178,1.4198,1.4212,1.4214,1.4237,1.4246,1.426,1.4275,1.4286,1.4308,1.4321,1.433,1.4331,1.434,1.4334,1.4328,1.4335,1.4335,1.4335,1.4336,1.4336,1.4335,1.4335,1.4335,0,1.4129,1.4149,1.4167,1.4179,1.4189,1.4207,1.4216,1.4228,1.4252,1.4259,1.4262,1.4292,1.4305,1.4321,1.4322,1.4328,1.4332,1.4332,1.4334,1.4334,1.4334,1.4335,1.4335,1.4334,1.4334,1.4334,1.4334,0,1.4134,1.4147,1.4151,1.4175,1.4186,1.4196,1.4216,1.4225,1.4236,1.425,1.4265,1.4282,1.43,1.4304,1.4314,1.4322,1.4324,1.433,1.4336,1.4332,1.4334,1.4334,1.4333,1.4333,1.4333,1.4333,0,0,1.4113,1.4148,1.4149,1.4161,1.4186,1.4196,1.4208,1.4226,1.4234,1.425,1.426,1.428,1.4287,1.4298,1.4309,1.4316,1.4316,1.4322,1.4322,1.4321,1.4327,1.4322,1.4322,1.4323,1.4323,1.4323,1.4326,0,1.411,1.4133,1.415,1.4166,1.4179,1.4197,1.4207,1.4223,1.4237,1.4249,1.4264,1.4278,1.4285,1.4292,1.4299,1.4314,1.4318,1.4314,1.4333,1.4333,1.4328,1.4323,1.4318,1.4319,1.4326,1.4326,1.4326,0,1.411,1.4127,1.4144,1.4169,1.4175,1.4184,1.4203,1.4215,1.4234,1.4244,1.4257,1.427,1.4283,1.4288,1.4307,1.4304,1.4313,1.4322,1.4322,1.4325,1.433,1.4326,1.432,1.432,1.4327,1.4327,1.4327,0,1.4094,1.4121,1.4135,1.4145,1.4174,1.418,1.4192,1.4212,1.4222,1.4239,1.4246,1.4264,1.4273,1.4287,1.4304,1.4306,1.4322,1.4328,1.433,1.433,1.4333,1.4332,1.4329,1.4337,1.4337,1.4337,1.4337,0,1.409,1.41,1.4129,1.4138,1.415,1.417,1.4182,1.4195,1.4213,1.4225,1.4241,1.4252,1.4274,1.4287,1.4301,1.4315,1.4319,1.4327,1.4331,1.4326,1.4325,1.4332,1.4333,1.4338,1.4338,1.4337,1.4337,0,1.4074,1.4094,1.4111,1.4138,1.4145,1.4153,1.4176,1.4185,1.42,1.4215,1.422,1.4243,1.426,1.4279,1.4301,1.4311,1.4324,1.4329,1.4318,1.432,1.4322,1.4322,1.4323,1.4325,1.4331,1.4331,1.4331,0,1.407,1.4079,1.4107,1.4117,1.4129,1.4144,1.4156,1.4176,1.4187,1.4211,1.4218,1.4236,1.4252,1.4278,1.4297,1.4315,1.432,1.432,1.4323,1.4319,1.4321,1.4321,1.4322,1.4318,1.4318,1.4318,1.4318,0,1.4062,1.4072,1.4088,1.4108,1.4121,1.4138,1.4155,1.4161,1.4186,1.4197,1.4215,1.4228,1.4252,1.427,1.4291,1.4303,1.4315,1.4317,1.4319,1.4314,1.4308,1.4312,1.4316,1.4317,1.4317,1.4317,1.4317,1.4317,1.4052,1.4061,1.4083,1.4101,1.4117,1.4133,1.4143,1.416,1.4176,1.4198,1.4209,1.4227,1.4247,1.4276,1.4289,1.4303,1.4307,1.4309,1.431,1.431,1.4309,1.4305,1.4307,1.4307,1.4307,1.4307,1.4307,0,1.4045,1.4061,1.4077,1.4101,1.4115,1.4126,1.4146,1.4157,1.4173,1.4191,1.4207,1.4229,1.4247,1.4268,1.4287,1.4295,1.4301,1.4299,1.4299,1.4302,1.4304,1.4302,1.4295,1.4295,1.4295,1.4295,1.4295,1.4295,1.4043,1.4059,1.4072,1.4096,1.4112,1.4131,1.4141,1.4156,1.4171,1.4195,1.421,1.4224,1.4244,1.4265,1.4282,1.4288,1.4295,1.4292,1.4299,1.4301,1.4302,1.4303,1.43,1.4293,1.4293,1.4296,1.4296,1.4296]}]]